High Desert Yearling Classic - Hand Inventory

Station: INVENTORY - T Race

Distance: 10 Miles    

Release: 19-Oct-2019 13:30

Weather Release:    Arrival:

Wind at Release:     Wind at Arrival:

Temp at Release: °    Temp at Arrival: °

Lofts: 105

Birds: 648

Clocked: 643

Good Luck to Everyone!
Drops Pos Breeder Pigeon Name Color Sex Ent Arrival Speed To Win Elg Pd
1 P N W Challenge - ID 1608-AU19-IDA “One Of My Best” BB H 1 13:41:13.12 1568.814 00:00:00 Yes
2 Brandon Raddon - UT 26440-AU19-AA BBSP H 1 13:41:32.17 1525.637 00:00:19 Yes
3 Larios Loft - CA 6137-AU19-FTST BC H 1 13:42:19.37 1428.243 00:01:06 Yes
4 Valley Lofts - PA 0575-IF19-HBG GRIZ H 1 13:42:49.30 1372.676 00:01:36 Yes
5 Spring Break Race - UT 37791-AU19-AA BB H 1 13:42:54.95 1362.669 00:01:42 Yes
6 Marian Taloi - OR 42421-AU19-JEDD BBSP H 1 13:43:07.13 1341.583 00:01:54 Yes
7 Callahan Loft - MO 0961-AU19-IMOI BC H 1 13:43:20.00 1320.000 00:02:07 Yes
8 Mick And Joan - MI 0620-AU19-GRM BZSP H 1 13:43:38.09 1290.812 00:02:25 Yes
9 3 Stars & A Sun Loft - TX 0431-AU19-3SS BCSP H 1 13:43:48.81 1274.116 00:02:36 Yes
10 Sackett Loft - ID 0026-AU19-IDA RECR H 1 13:44:00.41 1256.530 00:02:47 Yes
11 Warbird Loft - KS 31211-AU19-FOYS 8629x8802 CHC H 1 13:44:15.03 1235.044 00:03:02 Yes
12 Yendez Loft - TX 0368-AU19-YEND YENDEZ 368 BB C 1 13:44:19.56 1228.536 00:03:06 Yes
13 Jimmy Zheng Loft - MS 0972-AU19-JZL BB H 1 13:44:46.71 1190.919 00:03:34 Yes
14 Utley Lofts - ID 1510-AU19-IDA GRIZ H 1 13:44:55.78 1178.861 00:03:43 Yes
15 Utley Lofts - ID 1511-AU19-IDA BBPD H 2 13:45:13.16 1156.424 00:04:00 Yes
16 Warbird Loft - KS 31222-AU19-FOYS Greekxmoney BBSP H 2 13:45:19.03 1149.038 00:04:06 Yes
17 Callahan Loft - MO 36394-AU19-AA GRIZ H 2 13:45:32.63 1132.282 00:04:20 Yes
18 Lazy A C Loft - IN 0519-AU19-LZAC BC H 1 13:45:43.10 1119.712 00:04:30 Yes
19 Ordonez Loft - CA 0728-AU19-HAY RC H 1 13:46:22.99 1074.273 00:05:10 Yes
20 Bert Bruno - UT 25362-AU19-FOYS BC H 1 13:47:29.68 1006.021 00:06:17 Missing
21 Fly & Criddle - ID 19810-AU19-RMR 605x66 DSDL H 1 13:47:59.26 978.448 00:06:46 Yes
22 Fox Den - ID 0406-AU19-IDA BC H 1 13:48:23.78 956.712 00:07:11 Yes
23 Fly & Criddle - ID 19836-AU19-RMR 586x601 BB H 2 13:48:58.89 927.219 00:07:46 Yes
24 Jimmy Zheng Loft - MS 0927-AU19-JZL BBSP H 2 13:49:48.03 888.866 00:08:35 Yes
25 Papas Loft - ID 1918-AU19-PAPS BBWF H 1 13:49:53.33 884.919 00:08:40 Yes
26 Gall-Mccoy - WI 32342-AU19-AA BC H 1 13:50:01.57 878.850 00:08:48 Yes
27 Lucky Luke - ID 17537-AU19-AA DC H 1 13:50:09.23 873.283 00:08:56 Yes
28 Doug Donner - CO 3726-AU19-ARPU BB H 1 13:50:16.31 868.200 00:09:03 Yes
29 Silver Dollar Loft - CO 0101-AU19-SD BB H 1 13:50:23.85 862.851 00:09:11 Yes
30 Utley Lofts - ID 1505-AU19-IDA GRIZ H 3 13:50:33.02 856.434 00:09:20 Yes
31 Valley Lofts - PA 0577-IF19-HBG BC H 2 13:50:41.06 850.886 00:09:28 Yes
32 Transilvania Loft - NV 0177-AU19-CFL BB H 1 13:50:48.78 845.625 00:09:36 Yes
33 Gardocky Team - CA 22037-AU19-FOYS BB H 1 13:50:59.93 838.142 00:09:47 Yes
34 ** J-Ireneo Loft ** - CA 0461-AU19-JIL BB H 1 13:51:06.53 833.774 00:09:53 Yes
35 Marian Taloi - OR 26720-AU19-JEDD BCSP H 2 13:51:16.61 827.191 00:10:03 Yes
36 King James - CA 6270-AU19-VK 1377 X 1633 ES BB H 1 13:51:26.28 820.972 00:10:13 Yes
37 Jones Boys - UT 9606-AU19-SLI 1330-3824 BB H 1 13:51:32.11 817.268 00:10:19 Yes
38 Marian Taloi - OR 27000-AU19-JEDD BCPI H 3 13:51:40.05 812.276 00:10:27 Yes
39 Aimhigh Loft - CA 2990-AU19-AA AIM 2990 BB C 1 13:51:46.07 808.532 00:10:33 Missing
40 Ed Kehl - UT 2117-AU19-WGS BCPD H 1 13:51:57.42 801.567 00:10:44 Yes
41 Larios Loft - CA 6131-AU19-FTST BB H 2 13:52:04.00 797.583 00:10:51 Yes
42 San Pancho Loft - UT 1638-AU19-WFA BLK H 1 13:52:10.98 793.400 00:10:58 Yes
43 Carini / Codd - OR 0151-AU19-CODD BB H 1 13:52:21.31 787.290 00:11:08 Yes
44 Xfactord - OK 14715-AU19-ARPU Xcaliber-N BBSP H 1 13:52:26.31 784.366 00:11:13 Yes
45 Bolgar Loft - CA 5285-AU19-FS BBSP H 1 13:52:34.31 779.733 00:11:21 Yes
46 Z & R Mandigma Loft - MI 0077-AU19-ZR BC H 1 13:52:41.10 775.843 00:11:28 Yes
47 Warbird Loft - KS 31178-AU19-FOYS BB H 3 13:52:51.94 769.713 00:11:39 Yes
48 Sam Haslem - UT 0056-AU19-SAM BB H 1 13:53:07.85 760.889 00:11:55 Yes
49 Powerstroke Loft - UT 0437-AU19-PS DC H 1 13:53:15.17 756.897 00:12:02 Yes
50 Mc Laughlin Lofts - MA 0223-AU19-MCLO BB H 1 13:53:28.34 749.819 00:12:15 Yes
51 Maple Hill Loft - PA 0351-IF19-HHC BCSP H 1 13:53:37.62 744.910 00:12:25 Yes
52 Lazy A C Loft - IN 0540-AU19-LZAC DCSP H 2 13:53:47.49 739.760 00:12:34 Yes
53 Milo’s Loft - OK 79406-AU19-ARPU Van reet/ Van loon BC H 1 13:53:54.09 736.355 00:12:41 Yes
54 Gomez - CA 2436-AU19-CHP BC H 1 13:54:01.16 732.743 00:12:48 Yes
55 Yendez Loft - TX 0392-AU19-YEND YENDEZ 392 BB H 2 13:54:05.91 730.336 00:12:53 Yes
56 Marian Taloi - OR 26707-AU19-JEDD BC H 4 13:54:12.01 727.268 00:12:59 Yes
57 Aimhigh Loft - CA 2930-AU19-AA AIM 2930 BB H 2 13:54:55.86 705.948 00:13:43 Yes
58 Nick & Sons - WA 19285-AU19-FILA BB H 1 13:55:28.12 691.045 00:14:15 Yes
59 Filipino-American Pigeon Fanciers Alliance - IL 0396-AU19-EHC DC H 1 13:55:45.56 683.247 00:14:32 Yes
60 Milo’s Loft - OK 79417-AU19-ARPU YUsablon/vandenab/janssen BC H 2 13:55:57.35 678.075 00:14:44 Yes
61 Balikbayan Express - WA 0970-AU19-GSC BB H 1 13:56:06.91 673.938 00:14:54 Yes
62 Mario Rodriguez - AZ 31404-AU19-ARPU GRIZ H 1 13:56:15.67 670.191 00:15:03 Yes
63 Callahan Loft - MO 35389-AU19-AA BBSP H 3 13:56:21.12 667.881 00:15:08 Yes
64 Mario Rodriguez - AZ 31409-AU19-ARPU GRIZ H 2 13:56:30.49 663.946 00:15:17 Yes
65 Ed Kehl - UT 2138-AU19-WGS DCPD H 2 13:56:38.42 660.652 00:15:25 Yes
66 Lazy A C Loft - IN 0533-AU19-LZAC BB H 3 13:56:50.26 655.795 00:15:37 Yes
67 Sam Haslem - UT 0055-AU19-SAM BBSP H 2 13:56:57.05 653.041 00:15:44 Yes
68 Powerstroke Loft - UT 0404-AU19-PS BC H 2 13:57:04.95 649.866 00:15:52 Yes
69 Bert Bruno - UT 25353-AU19-FOYS BBSP H 2 13:57:12.04 647.043 00:15:59 Yes
70 Gina's Loft - ID 19826-AU19-RMR 588x435 BB H 1 13:57:17.70 644.807 00:16:05 Yes
71 L & L - PA 0041-AU19-PGC BC H 1 13:57:27.01 641.162 00:16:14 Yes
72 Lazy A C Loft - IN 0516-AU19-LZAC BB H 4 13:57:34.68 638.190 00:16:22 Yes
73 Wise Loft - IL 4188-AU19-CHI BC H 1 13:57:43.11 634.955 00:16:30 Yes
74 King Of The Hill - AZ 0274-IF19-PSC BB H 1 13:57:56.10 630.034 00:16:43 Yes
75 Filipino-American Pigeon Fanciers Alliance - IL 0063-AU19-FAMP BCWF H 2 13:58:05.21 626.628 00:16:52 Yes
76 Bert Bruno - UT 25359-AU19-FOYS BB H 3 13:58:19.43 621.385 00:17:06 Yes
77 Aimhigh Loft - CA 2970-AU19-AA AIM 2970 BB H 3 13:58:30.58 617.334 00:17:17 Yes
78 A B C Loft2 - NY 2563-IF19-WW BCSP H 1 13:58:41.83 613.301 00:17:29 Yes
79 Mamer Loft - WI 9165-AU19-WRV BB H 1 13:58:55.01 608.642 00:17:42 Yes
80 Bert Bruno - UT 25341-AU19-FOYS BB H 4 13:59:03.65 605.626 00:17:51 Yes
81 Scott/Carol Team - UT 0632-AU19-RW BB H 1 13:59:08.28 604.022 00:17:55 Yes
82 Powerstroke Loft - UT 0546-AU19-PS BB H 3 13:59:18.57 600.488 00:18:05 Yes
83 Radd - OK 14711-AU19-ARPU 1148/2194 BP BB H 1 13:59:29.39 596.816 00:18:16 Yes
84 Radd - OK 14710-AU19-ARPU 1148/2194 BP BB H 2 13:59:38.13 593.882 00:18:25 Yes
85 Bert Bruno - UT 25357-AU19-FOYS BB H 5 13:59:45.71 591.361 00:18:33 Yes
86 Doug Donner - CO 3737-AU19-ARPU BB H 2 13:59:54.58 588.439 00:18:41 Yes
87 Pelican Loft - ID 1964-AU19-PL BB H 1 14:00:01.58 586.152 00:18:48 Yes
88 Mike Beam - KS 90964-AU19-TOP BB H 1 14:00:13.62 582.261 00:19:00 Yes
89 Norman Lewellen - HI 36846-AU19-JEDS BC H 1 14:00:20.43 580.083 00:19:07 Yes
90 Cloux Loft - CO 9982-AU19-FH BB H 1 14:00:31.10 576.703 00:19:18 Yes
91 Danny Lum - HI 0046-IF19-FSC BB H 1 14:00:39.03 574.216 00:19:26 Yes
92 Morfin Loft - ID 0069-AU19-IDA BC H 1 14:00:50.54 570.644 00:19:37 Yes
93 3 Stars & A Sun Loft - TX 0468-AU19-3SS BB H 2 14:00:58.83 568.099 00:19:46 Yes
94 Yendez Loft - TX 0419-AU19-YEND YENDEZ 419 BCWF C 3 14:01:07.02 565.607 00:19:54 Yes
95 98 M J - PA 0067-AU19-AJL BC H 1 14:01:13.91 563.528 00:20:01 Yes
96 Gary Gross - AB 6325-AU19-CIRP BB H 1 14:01:25.87 559.954 00:20:13 Yes
97 Marian Taloi - OR 26944-AU19-JEDD BB H 5 14:01:37.45 556.536 00:20:24 Yes
98 Redtex - TX 0172-AU19-RT electric lady BBWF H 1 14:01:47.47 553.613 00:20:34 Yes
99 Ed Kehl - UT 2116-AU19-WGS DC H 3 14:01:57.94 550.591 00:20:45 Yes
100 Fly & Criddle - ID 19215-AU19-RMR Africa 2 MLY H 3 14:02:04.77 548.637 00:20:52 Yes

There are 633 bird records

Note: These Race Results are unofficial and subject to change until verified by the Race Committee and declared final.